This is the latest recevied weather packets stored in our database for station/object N3TJJ-11. If no packets are shown the sender has not sent any weather packets the latest 10 day(s).
| Time | Temp. | Humidity | Pressure | Rain* | Wind** | Luminosity | Snow |
|---|---|---|---|---|---|---|---|
| 1777856628 | 10.56° C | 47% | 1012.9 hPa | 0 mm | - | - | - |
| 1777856387 | 10.56° C | 46% | 1012.9 hPa | 0 mm | - | - | - |
| 1777856030 | 10.56° C | 47% | 1012.8 hPa | 0 mm | - | - | - |
| 1777855667 | 10.56° C | 46% | 1012.7 hPa | 0 mm | - | - | - |
| 1777855428 | 10.56° C | 46% | 1012.6 hPa | 0 mm | - | - | - |
| 1777854947 | 10.56° C | 47% | 1012.7 hPa | 0 mm | - | - | - |
| 1777854828 | 10.56° C | 47% | 1012.6 hPa | 0 mm | - | - | - |
| 1777854227 | 11.11° C | 46% | 1012.4 hPa | 0 mm | - | - | - |
| 1777853629 | 11.11° C | 45% | 1012.4 hPa | 0 mm | - | - | - |
| 1777853507 | 11.11° C | 45% | 1012.4 hPa | 0 mm | - | - | - |
| 1777853028 | 11.11° C | 46% | 1012.2 hPa | 0 mm | - | - | - |
| 1777852787 | 11.11° C | 44% | 1012.2 hPa | 0 mm | - | - | - |
| 1777852429 | 11.67° C | 46% | 1012.1 hPa | 0 mm | - | - | - |
| 1777852068 | 11.67° C | 44% | 1012.1 hPa | 0 mm | - | - | - |
| 1777851828 | 11.67° C | 44% | 1012 hPa | 0 mm | - | - | - |
| 1777851347 | 12.22° C | 44% | 1012 hPa | 0 mm | - | - | - |
| 1777851228 | 12.22° C | 43% | 1012 hPa | 0 mm | - | - | - |
| 1777850627 | 12.78° C | 39% | 1012 hPa | 0 mm | - | - | - |
| 1777850028 | 13.33° C | 39% | 1012 hPa | 0 mm | - | - | - |
| 1777849907 | 13.33° C | 39% | 1012 hPa | 0 mm | - | - | - |
| 1777849429 | 13.33° C | 38% | 1012 hPa | 0 mm | - | - | - |
| 1777849188 | 13.33° C | 39% | 1012 hPa | 0 mm | - | - | - |
| 1777848828 | 13.33° C | 39% | 1012 hPa | 0 mm | - | - | - |
| 1777848468 | 13.33° C | 38% | 1012 hPa | 0 mm | - | - | - |
| 1777848228 | 13.33° C | 37% | 1012 hPa | 0 mm | - | - | - |
* Rain latest hour (hover to see other rain measurements)
** Current wind speed in m/s (hover to see current wind gust speed)